�������r�C�����j�^�v���󋵏��
Date,Time,5�C6���@���p�r�C��,����,����(m/s)
2021/06/02,00:00,3.9,��,5.6
2021/06/02,00:10,4.0,��,5.9
2021/06/02,00:20,3.8,��,6.4
2021/06/02,00:30,3.8,��,6.9
2021/06/02,00:40,4.1,��,7.2
2021/06/02,00:50,3.7,��,7.4
2021/06/02,01:00,4.0,��,7.6
2021/06/02,01:10,3.8,��,8.2
2021/06/02,01:20,3.8,��,7.9
2021/06/02,01:30,4.0,��,6.7
2021/06/02,01:40,3.8,��,6.4
2021/06/02,01:50,3.8,��,5.8
2021/06/02,02:00,4.0,��,4.8
2021/06/02,02:10,4.0,��,5.4
2021/06/02,02:20,3.9,��,5.4
2021/06/02,02:30,3.9,��,6.1
2021/06/02,02:40,3.9,��,7.9
2021/06/02,02:50,3.9,��,7.2
2021/06/02,03:00,3.9,��,6.2
2021/06/02,03:10,4.0,��,5.6
2021/06/02,03:20,4.0,��,5.3
2021/06/02,03:30,3.8,��,4.8
2021/06/02,03:40,3.8,��,5.0
2021/06/02,03:50,3.9,��,5.5
2021/06/02,04:00,3.9,��,5.7
2021/06/02,04:10,3.7,��,5.9
2021/06/02,04:20,3.8,��,5.8
2021/06/02,04:30,3.9,��,6.4
2021/06/02,04:40,3.9,��,5.5
2021/06/02,04:50,3.7,��쓌,5.4
2021/06/02,05:00,3.9,��쓌,5.5
2021/06/02,05:10,4.0,��,4.7
2021/06/02,05:20,4.0,��,4.0
2021/06/02,05:30,3.9,��,3.1
2021/06/02,05:40,3.8,��,4.5
2021/06/02,05:50,3.8,��,2.6
2021/06/02,06:00,4.0,��쓌,4.0
2021/06/02,06:10,3.7,��,5.3
2021/06/02,06:20,3.7,��쓌,6.1
2021/06/02,06:30,3.9,��쓌,6.7
2021/06/02,06:40,4.0,��,6.5
2021/06/02,06:50,3.8,��,6.4
2021/06/02,07:00,3.9,��,5.0
2021/06/02,07:10,3.9,��,5.3
2021/06/02,07:20,3.8,��쓌,5.7
2021/06/02,07:30,3.7,��쓌,5.9
2021/06/02,07:40,3.9,��,5.5
2021/06/02,07:50,4.0,��,5.3
2021/06/02,08:00,4.0,��,5.0
2021/06/02,08:10,3.8,��,4.3
2021/06/02,08:20,4.0,��,4.5
2021/06/02,08:30,3.9,��쓌,4.5
2021/06/02,08:40,3.8,��,5.3
2021/06/02,08:50,4.0,��,5.2
2021/06/02,09:00,3.7,��쓌,4.2
2021/06/02,09:10,3.8,��쓌,4.2
2021/06/02,09:20,3.7,��,4.0
2021/06/02,09:30,4.1,��,3.9
2021/06/02,09:40,3.9,��,4.1
2021/06/02,09:50,4.0,��쓌,3.2
2021/06/02,10:00,3.9,��쐼,1.7
2021/06/02,10:10,3.8,�쓌,1.2
2021/06/02,10:20,3.9,-,CALM
2021/06/02,10:30,4.0,���k��,0.8
2021/06/02,10:40,3.8,���k��,0.6
2021/06/02,10:50,4.0,�k��,1.2
2021/06/02,11:00,4.1,�k�k��,2.3
2021/06/02,11:10,4.0,�k�k��,1.7
2021/06/02,11:20,3.9,�k,2.3
2021/06/02,11:30,4.1,�k��,2.0
2021/06/02,11:40,3.7,���쓌,2.3
2021/06/02,11:50,3.9,�쓌,3.4
2021/06/02,12:00,4.1,��쓌,5.0
2021/06/02,12:10,3.9,��쓌,7.3
2021/06/02,12:20,4.0,��쓌,6.8
2021/06/02,12:30,3.9,��쓌,9.2
2021/06/02,12:40,4.0,��쓌,10.9
2021/06/02,12:50,3.9,��쓌,11.3
2021/06/02,13:00,3.8,��쓌,10.5
2021/06/02,13:10,4.0,��쓌,11.0
2021/06/02,13:20,3.8,��,10.9
2021/06/02,13:30,4.0,��쓌,12.2
2021/06/02,13:40,3.8,��,7.6
2021/06/02,13:50,3.9,��,8.3
2021/06/02,14:00,3.8,��쓌,8.3
2021/06/02,14:10,4.0,��쓌,8.2
2021/06/02,14:20,3.9,��,8.9
2021/06/02,14:30,3.8,��쓌,10.5
2021/06/02,14:40,4.1,��,13.8
2021/06/02,14:50,3.9,��,11.1
2021/06/02,15:00,3.9,��쓌,9.7
2021/06/02,15:10,3.9,��,8.8
2021/06/02,15:20,3.9,��,8.7
2021/06/02,15:30,3.9,��,5.7
2021/06/02,15:40,3.9,��,6.3
2021/06/02,15:50,3.8,��,7.8
2021/06/02,16:00,4.0,��,8.3
2021/06/02,16:10,4.0,��,7.9
2021/06/02,16:20,3.8,��,8.4
2021/06/02,16:30,3.8,��,9.3
2021/06/02,16:40,3.9,��,9.1
2021/06/02,16:50,3.9,��,7.9
2021/06/02,17:00,3.9,��,6.9
2021/06/02,17:10,4.0,��,6.7
2021/06/02,17:20,3.8,��,7.1
2021/06/02,17:30,3.9,��,7.5
2021/06/02,17:40,3.8,��,7.3
2021/06/02,17:50,3.9,��,6.5
2021/06/02,18:00,3.8,��,8.0
2021/06/02,18:10,4.0,��,8.1
2021/06/02,18:20,3.9,��,6.8
2021/06/02,18:30,3.8,��,7.6
2021/06/02,18:40,3.8,��,8.1
2021/06/02,18:50,3.7,��,8.4
2021/06/02,19:00,3.8,��,8.1
2021/06/02,19:10,3.8,��,8.4
2021/06/02,19:20,3.7,��,8.9
2021/06/02,19:30,4.0,��,8.4
2021/06/02,19:40,3.9,��,8.4
2021/06/02,19:50,3.9,��,8.1
2021/06/02,20:00,4.1,��,8.1
2021/06/02,20:10,3.7,��,7.0
2021/06/02,20:20,4.0,��,6.6
2021/06/02,20:30,3.9,��,6.5
2021/06/02,20:40,3.8,��,6.9
2021/06/02,20:50,4.0,��,7.6
2021/06/02,21:00,3.9,��,6.2
2021/06/02,21:10,3.9,��,6.6
2021/06/02,21:20,3.8,��,6.6
2021/06/02,21:30,3.8,��,7.0
2021/06/02,21:40,4.0,��,6.6
2021/06/02,21:50,3.8,��,6.1
2021/06/02,22:00,3.9,��,6.2
2021/06/02,22:10,3.7,��,6.6
2021/06/02,22:20,4.0,��,6.4
2021/06/02,22:30,3.9,��,6.6
2021/06/02,22:40,3.9,��,6.0
2021/06/02,22:50,3.9,��,5.3
2021/06/02,23:00,3.8,��,5.4
2021/06/02,23:10,3.9,��,5.9
2021/06/02,23:20,3.8,��쐼,5.6
2021/06/02,23:30,3.8,��쐼,5.5
2021/06/02,23:40,3.8,��,6.4
2021/06/02,23:50,3.8,��쐼,6.9
